NOAA-15
1 25338U 98030A 25311.21128100 .00000247 00000-0 11911-3 0 9997
2 25338 98.5256 332.6576 0009110 279.0704 80.9446 14.27048502429638


Ligne 0
Le nom commun de l'objetNOAA-15
Ligne 1
Numéro de catalogue satellite25338U
Désignateur international98030A
Année de lancement98
Numéro de lancement dans l'année030
Object du lancementA
Époque (année)25
Époque (Jour de l'année en UTC)311.21128100
07/11/2025 05:04:15
1ère dérivée du mouvement moyen .00000247
2ème dérivée du mouvement moyen 00000-0
B * Terme de glissement 11911-3
Type de jeu d'éléments0
Numéro d'élément 999
Ligne 2
Numéro de catalogue satellite25338
Inclinaison de l'orbite (degrés) 98.5256
Ascension droite du nœud ascendant (degrés)332.6576
Excentricité0009110
Argument du Périgée (degrés)279.0704
Anomalie moyenne (degrés) 80.9446
Mouvement moyen (révolutions / jour)14.27048502
Numéro de révolution à l'époque42963
Valeurs déduites
Période Orbitale (en minutes)100.9 min.
Demi-grand axe (en kilomètres)7179.8 Km
Altitude à l‘Apogée (en kilomètres)815.3 Km
Altitude au Périgée (en kilomètres)802.2 Km

* Sources des TLE's : Celestrack